Location: Newark
(52.3735°N, 16.9806°E)
Time: 19:05:09
(UTC+00:00)

TIGRISAT - Pass Details

Date: 27 November 2022
Orbit: 601 x 684 km, 97.7° (Epoch: 03 February)

Event Time Altitude Azimuth Distance (km) Brightness Sun altitude
Exits shadow 17:20:03 23° 9° (N) 1,432 ? -22.7°
Maximum altitude 17:22:57 77° 286° (WNW) 700 ? -23.2°
Drops below altitude 10° 17:27:36 10° 201° (SSW) 2,125 ? -23.9°
Sets 17:29:51 0° 200° (SSW) 3,040 ? -24.2°
